Location: Pilipovskiye Korichintsy
(49.1833°N, 27.4667°E)
Time: 00:18:46
(UTC+00:00)

Lacrosse 5 - Pass Details

Date: 28 October 2020
Orbit: 714 x 725 km, 57.0° (Epoch: 30 November)

Event Time Altitude Azimuth Distance (km) Brightness Sun altitude
Rises 19:08:26 0° 304° (NW) 3,121 6.0 -40.8°
Reaches altitude 10° 19:10:49 10° 303° (WNW) 2,199 5.0 -41.1°
Enters shadow 19:11:29 14° 302° (WNW) 1,949 4.7 -41.2°
